Regional Weather Roundup
Issued by NWS Upton, NY

Current Version | Previous Version | Graphics & Text | Print | Product List | Glossary Off
Versions: 1 2 3 4 5 6 7 8 9 10 11 12 13 14 15 16 17 18 19 20 21 22 23 24 25 26 27 28 29 30

000
ASUS41 KOKX 270304
RWROKX

REGIONAL WEATHER ROUNDUP
NATIONAL WEATHER SERVICE NEW YORK NY
1100 PM EDT FRI AUG 26 2016

NOTE: "FAIR" INDICATES FEW OR NO CLOUDS BELOW 12,000 FEET WITH NO
SIGNIFICANT WEATHER AND/OR OBSTRUCTIONS TO VISIBILITY.

NYZ071-072-176-178-NJZ106-104-270400-
NEW YORK CITY METRO AREA

CITY           SKY/WX    TMP DP  RH WIND       PRES   REMARKS
Central Park     N/A     81  63  54 MISG        N/A
LaGuardia APRT PTCLDY    83  65  54 NW9       30.05R
Kennedy INTL   PTCLDY    82  68  62 N12       30.06R
Newark/Liberty PTCLDY    83  63  50 NW12      30.05R
Bronx Bot Gard   N/A     79  63  57 N7        30.06F
Wall St Helipt CLEAR     82  66  57 W5        30.06S
Teterboro      CLEAR     80  63  55 N3        30.05R
$$

NYZ177-179-078>081-270400-
LONG ISLAND NEW YORK

CITY           SKY/WX    TMP DP  RH WIND       PRES   REMARKS
Farmingdale    CLEAR     80  66  62 N6        30.05R
MacArthur/ISP  PTCLDY    75  66  73 NW6       30.04R
Shirley        CLEAR     70  64  81 CALM      30.05R
Riverhead      NOT AVBL
Westhampton    CLEAR     67  62  84 N6        30.05R
Southampton      N/A     73  70  88 W2        30.00R
Bridgehampton    N/A     72  66  83 CALM      30.02R
East Hampton   FAIR      72  67  84 NW5       30.03R
Montauk          N/A     76  70  82 NW5       30.04R
$$

NYZ052-065-067-270400-
HUDSON VALLEY

CITY           SKY/WX    TMP DP  RH WIND       PRES   REMARKS
White Plains   CLEAR     74  66  76 NW6       30.07R
Newburgh       CLEAR     70  64  83 NW5       30.11R
Montgomery     CLEAR     73  63  70 CALM      30.09R
Poughkeepsie   CLEAR     66  64  93 CALM      30.07R
Albany         CLEAR     68  59  73 CALM      30.09R
$$

NJZ001-105-106-008-010-013-015-019>022-104-270400-
NEW JERSEY

CITY           SKY/WX    TMP DP  RH WIND       PRES   REMARKS
Newark/Liberty PTCLDY    83  63  50 NW12      30.05R
Teterboro      CLEAR     80  63  55 N3        30.05R
Caldwell       CLEAR     74  66  76 CALM      30.08R
Morristown     CLEAR     66  64  94 CALM      30.08R
Somerville     CLEAR     70  67  90 CALM      30.06R
Linden         FAIR      81  62  52 N7        30.08R
Sussex         CLEAR     68  66  93 CALM      30.10S
Abdover          N/A     67  65  93 CALM      30.11R
Trenton        CLEAR     76  64  66 N5        30.06S
Millville      CLEAR     79  68  69 N5        30.07R
Atlantic City  CLEAR     77  68  73 NW5       30.06R
Wrightstown    CLEAR     76  67  73 NW7       30.04R
Toms River     CLEAR     76  66  71 N5        30.07R
Belmar         CLEAR     77  66  68 NW5       30.07S
$$

PAZ047>061-062-071-270400-
EASTERN PENNSYLVANIA

CITY           SKY/WX    TMP DP  RH WIND       PRES   REMARKS
Philadelphia   CLEAR     82  65  56 N7        30.07R
Allentown      CLEAR     73  63  70 W3        30.09S
Scranton       CLEAR     70  64  81 E6        30.14R
$$

CTZ002-004>006-009-010-012-RIZ004-006-007-MAZ004-011-015-270400-
SOUTHERN NEW ENGLAND
 IN CT

CITY           SKY/WX    TMP DP  RH WIND       PRES   REMARKS
Bradley INTL   PTCLDY    76  61  59 NW9       30.06R
Hartford       CLEAR     80  63  55 N6        30.05R
Danbury        CLEAR     67  62  84 CALM      30.09R
Wtrbury/Oxford   N/A     73  57  56 N8        30.10S
Bridgeport     CLEAR     80  59  48 N5        30.04R
Meriden        CLEAR     70  63  78 CALM      30.05R
New Haven      CLEAR     75  61  61 N6        30.04R
Chester        FAIR      75  63  64 NW6       30.06R
Groton         CLEAR     77  66  68 N6        30.03R
Wilimantic     CLEAR     73  70  90 CALM      30.06R

 IN RI

CITY           SKY/WX    TMP DP  RH WIND       PRES   REMARKS
Providence     CLEAR     79  66  64 NW7       30.02R
Block Island   CLEAR     74  72  93 NW8       30.03R
Westerly       CLEAR     76  68  76 NW5       30.03R
 IN MA

CITY           SKY/WX    TMP DP  RH WIND       PRES   REMARKS
Boston         CLEAR     82  65  56 NW10      30.02R
Worcester      CLEAR     70  62  76 W10       30.08R
Westfield      CLEAR     75  61  61 NW7       30.06R
Provincetown   CLEAR     71  70  96 SW5       30.01R
Nantucket      FOG       72  71  97 CALM      30.01R VSB 1/4
$$

ANZ330-335-338-340-345-350-353-355-270400-
COASTAL MARINE OBSERVATIONS


STATION/POSITION TIME  SKY/WX   TEMP    WIND        PRES    VSBY  WAVE
                                AIR SEA DIR/SP/G                  HT/PER
                 (UTC)          (F)     (DEG/KT/KT) (MB)    (MI)  (FT/S)
NY HARB ENTRANCE 0150            79 76  330/  6/  6 1016.9          2/ 6
20S FIRE ISLAND  0150            76 74  280/  6/  6 1016.6          2/ 6
GREAT SOUTH BAY  0230            79 80  320/  4/  6   N/A
23 SSW MONTAUK P 0150            76 74  270/  8/ 10 1016.4          2/ 6
15 E BARNEGAT LI 0200               76                N/A           3/ 5
HUDSON CANYON    0150            80 79              1016.5          3/ 6
KINGS POINT      0200            80 76              1017.2
EXECUTION ROCKS  0200            79     320/  6/  6   N/A
CENTRAL LI SOUND 0200            80 77  320/  6/  8   N/A           1
EASTERN LI SOUND 0200            73 70  300/  4/  6   N/A
ROBBINS REEF     0206            84                 1017.0
$$


>>>>>>>>>>>>>>>>>>>>>>>>>>>> KEY <<<<<<<<<<<<<<<<<<<<<<<<<<<
>                                                          <
>     SKY/WX - Sky Condition/Present Weather               <
>     TMP    - Temperature in Fahrenheit                   <
>     DP     - Dew Point in Fahrenheit                     <
>     RH     - Relative Humidity in Percent                <
>     WIND   - Direction (from) and Speed in MPH           <
>     PRES   - Mean Sea Level Pressure (inches of Hg)      <
>     WCI    - Wind Chill Index                            <
>     VSB    - VISIBILITY IN MILES                         <
>     HX     - HEAT INDEX                                  <
>     TC     - TEMPERATURE IN CELSIUS                      <
>     VRB    - VARIABLE WIND DIRECTION                     <
>                                                          <
>>>>>>>>>>>>>>>>>>>>>>>>>>>> KEY <<<<<<<<<<<<<<<<<<<<<<<<<<<




USA.gov is the U.S. government's official web portal to all federal, state and local government web resources and services.